Hourly Weather Roundup
Issued by NWS Central Illinois

Home | Current Version | Previous Version | Text Only | Print | Product List | Glossary On
Versions: 1 2 3 4 5 6 7 8 9 10 11 12 13 14 15 16 17 18 19 20 21 22 23 24 25 26 27 28 29 30 31 32 33 34 35 36 37 38 39 40 41 42 43 44 45 46 47 48 49 50
000
NZUS43 KILX 240310
HWRILX

Area Weather Roundup
National Weather Service Lincoln IL
1000 PM CDT MON APR 23 2018

NOTE:  "FAIR" indicates few or no clouds below 12,000 feet, with
       no sigificant weather and/or obstructions to visibility.


CITY           SKY/WX    TMP DP  RH WIND       PRES   REMARKS
Bloomington    LGT RAIN  54  53  97 NE10      30.06F FOG
Champaign      CLOUDY    55  54  96 NE12      30.03S FOG
Danville       CLOUDY    54  54 100 E8        30.02S
Decatur        LGT RAIN  55  55 100 NE12      30.03R FOG
Effingham      DRIZZLE   56  56 100 N5        30.01S
Flora          LGT RAIN  58  56  93 NE8       29.98R
Galesburg      FAIR      63  47  55 E9        30.06R
Jacksonville   LGT RAIN  55  54  96 NE8       30.03S
Lacon          CLOUDY    55  41  59 E7        30.07S
Lawrenceville  CLOUDY    57  55  93 MISG      29.98S
Litchfield     RAIN      55  54  98 NE9       30.01S
$$


CITY           SKY/WX    TMP DP  RH WIND       PRES   REMARKS
Lincoln        LGT RAIN  56  56 100 NE7       30.05S
Macomb         CLOUDY    58  52  82 SE9       30.07R
Mattoon        LGT RAIN  54  54 100 NE8       30.00S FOG
Mt Carmel AP   MOCLDY    56  55  95 NE7       29.97S
Olney-Noble AP CLOUDY    55  53  93 NE6       29.98S
Paris AP       RAIN      54  54 100 NE8       30.02S
Peoria         CLOUDY    57  54  89 E9        30.06F
Pontiac        DRIZZLE   50  50  99 NE12      30.09S
Rantoul        LGT RAIN  56  56  99 NE9       30.05S
Robinson       CLOUDY    55  55  99 E6        30.00S
Springfield    LGT RAIN  57  56  96 NE8       30.04R FOG
Taylorville    DRIZZLE   55  54  98 NE9       30.02S
$$

...REGIONAL REPORTS...


CITY           SKY/WX    TMP DP  RH WIND       PRES   REMARKS
Chicago O`Hare CLOUDY    50  29  44 N10       30.11F
Kankakee       CLOUDY    47  46  95 NE9       30.09F FOG
La Salle       CLOUDY    56  41  56 E14       30.09F
Moline         FAIR      61  34  36 E9        30.06R
Mount Sterling CLOUDY    57  52  83 E14       30.03S
Mount Vernon   CLOUDY    57  55  93 NE7       29.96S
Pittsfield     DRIZZLE   57  55  92 NE7       30.04S
Quincy         CLOUDY    61  42  49 E10       30.02R
Rockford       MOCLDY    57  28  33 E3        30.11S
$$


CITY           SKY/WX    TMP DP  RH WIND       PRES   REMARKS
Burlington     CLOUDY    62  34  35 NE6       30.03R
Cedar Rapids   FAIR      58  28  32 NE9       30.08R
Des Moines     CLEAR     62  29  28 NE3       30.09R
Kirksville     PTCLDY    54  32  43 N8        30.05R
Ottumwa        CLOUDY    56  26  31 NE7       30.07R
St Louis       CLOUDY    57  54  89 NE8       30.00R
$$


CITY           SKY/WX    TMP DP  RH WIND       PRES   REMARKS
Terre Haute    MOCLDY    54  53  97 E7        30.01R
Evansville     CLOUDY    56  55  97 N3        29.96S
Indianapolis   CLOUDY    54  50  86 E14       30.04S
Lafayette      CLOUDY    54  52  93 E10       30.05F
Madison        FAIR      50  34  54 CALM      30.12S
Milwaukee      MOCLDY    52  25  35 N15       30.13R
$$





USA.gov is the U.S. government's official web portal to all federal, state and local government web resources and services.